GW3558 Weather Reports


Display with metric or nautical units.
time (UTC)temp
F
wind
direction
speed
MPH
gust
MPH
rain 1hr
in
rain 24hr
in
rain mn
in
humidity
%
barometer
mb
20260503231013 68 96 3.0 8.0 0.00 0.00 0.00 34 1018.6
20260503230515 68 69 1.0 4.0 0.00 0.00 0.00 34 1018.7
20260503230058 68 101 0.0 4.0 0.00 0.00 0.00 36 1018.8
20260503225515 67 103 2.0 4.0 0.00 0.00 0.00 35 1018.7
20260503225015 68 72 2.0 4.0 0.00 0.00 0.00 34 1018.8
20260503224550 68 97 2.0 7.0 0.00 0.00 0.00 33 1018.9
20260503224016 68 248 3.0 7.0 0.00 0.00 0.00 33 1019.1
20260503223517 68 109 1.0 7.0 0.00 0.00 0.00 35 1019.2
20260503223046 68 108 3.0 7.0 0.00 0.00 0.00 32 1019.2
20260503222519 68 182 3.0 6.0 0.00 0.00 0.00 35 1019.3
20260503222015 68 93 2.0 4.0 0.00 0.00 0.00 34 1019.4
20260503221554 68 49 2.0 6.0 0.00 0.00 0.00 34 1019.4
20260503221015 68 84 2.0 7.0 0.00 0.00 0.00 36 1019.4
20260503220516 68 150 2.0 7.0 0.00 0.00 0.00 34 1019.4
20260503220051 68 69 3.0 9.0 0.00 0.00 0.00 33 1019.5
20260503215516 68 84 2.0 7.0 0.00 0.00 0.00 35 1019.5
20260503215019 67 90 3.0 8.0 0.00 0.00 0.00 34 1019.6
20260503214557 67 147 2.0 8.0 0.00 0.00 0.00 34 1019.6
20260503214018 67 88 3.0 10.0 0.00 0.00 0.00 35 1019.7
20260503213515 67 155 5.0 10.0 0.00 0.00 0.00 34 1019.7
20260503213044 67 115 3.0 8.0 0.00 0.00 0.00 34 1019.8
20260503212517 68 90 3.0 9.0 0.00 0.00 0.00 35 1019.8
20260503212024 68 72 3.0 9.0 0.00 0.00 0.00 35 1019.9
20260503211548 67 64 3.0 9.0 0.00 0.00 0.00 36 1019.9
20260503211017 67 109 4.0 9.0 0.00 0.00 0.00 36 1019.9
20260503210522 67 92 3.0 9.0 0.00 0.00 0.00 34 1020.0
20260503210054 67 122 3.0 9.0 0.00 0.00 0.00 33 1020.1
20260503205520 68 112 4.0 10.0 0.00 0.00 0.00 32 1020.1
20260503205023 68 80 3.0 10.0 0.00 0.00 0.00 33 1020.2
20260503204558 67 63 3.0 8.0 0.00 0.00 0.00 36 1020.2
20260503204018 67 86 4.0 8.0 0.00 0.00 0.00 33 1020.3
20260503203520 67 90 4.0 11.0 0.00 0.00 0.00 34 1020.3
20260503203100 67 91 4.0 11.0 0.00 0.00 0.00 32 1020.4
20260503202522 67 103 4.0 9.0 0.00 0.00 0.00 34 1020.4
20260503202021 67 108 5.0 9.0 0.00 0.00 0.00 34 1020.6
20260503201558 66 91 4.0 10.0 0.00 0.00 0.00 37 1020.6
20260503201019 67 71 4.0 10.0 0.00 0.00 0.00 33 1020.6
20260503200516 66 92 4.0 9.0 0.00 0.00 0.00 34 1020.7
20260503200105 67 88 5.0 9.0 0.00 0.00 0.00 34 1020.6
20260503195514 66 86 5.0 10.0 0.00 0.00 0.00 36 1020.7
20260503195028 66 101 4.0 11.0 0.00 0.00 0.00 34 1020.7
20260503194558 66 100 6.0 12.0 0.00 0.00 0.00 33 1020.8
20260503194014 66 94 4.0 12.0 0.00 0.00 0.00 35 1020.7
20260503193512 66 138 5.0 12.0 0.00 0.00 0.00 32 1020.7
20260503193053 66 101 4.0 11.0 0.00 0.00 0.00 33 1020.8
20260503192518 66 81 4.0 11.0 0.00 0.00 0.00 33 1020.7
20260503192020 66 81 5.0 10.0 0.00 0.00 0.00 33 1020.8
20260503191555 66 98 5.0 9.0 0.00 0.00 0.00 31 1020.9
20260503191018 66 130 3.0 9.0 0.00 0.00 0.00 33 1020.9
20260503190519 66 90 5.0 9.0 0.00 0.00 0.00 30 1020.9
20260503190056 66 94 3.0 9.0 0.00 0.00 0.00 37 1021.0
20260503185508 66 98 5.0 9.0 0.00 0.00 0.00 33 1021.1
20260503185019 66 94 4.0 9.0 0.00 0.00 0.00 34 1021.1
20260503184606 66 101 4.0 8.0 0.00 0.00 0.00 34 1021.1
20260503184018 67 104 4.0 9.0 0.00 0.00 0.00 34 1021.1
20260503183522 68 62 3.0 9.0 0.00 0.00 0.00 34 1021.1
20260503183100 68 76 2.0 7.0 0.00 0.00 0.00 33 1021.5
20260503182519 67 82 3.0 7.0 0.00 0.00 0.00 35 1021.4
20260503182019 66 84 4.0 7.0 0.00 0.00 0.00 37 1021.5
20260503181552 66 86 3.0 8.0 0.00 0.00 0.00 37 1021.3
20260503181017 66 115 3.0 8.0 0.00 0.00 0.00 34 1021.4
20260503180521 67 99 4.0 8.0 0.00 0.00 0.00 37 1021.5
20260503180108 68 75 3.0 7.0 0.00 0.00 0.00 31 1021.4
20260503175520 68 69 2.0 7.0 0.00 0.00 0.00 37 1021.4
20260503175027 67 75 2.0 9.0 0.00 0.00 0.00 37 1021.4
20260503174557 67 53 3.0 9.0 0.00 0.00 0.00 33 1021.4
20260503174015 66 80 4.0 9.0 0.00 0.00 0.00 38 1021.4
20260503173517 66 80 4.0 9.0 0.00 0.00 0.00 40 1021.4
20260503173050 65 77 3.0 5.0 0.00 0.00 0.00 42 1021.4
20260503172626 65 76 1.0 8.0 0.00 0.00 0.00 44 1021.4
20260503172019 65 90 3.0 8.0 0.00 0.00 0.00 42 1021.4
20260503171017 67 107 2.0 4.0 0.00 0.00 0.00 41 1021.5
20260503170517 67 94 1.0 5.0 0.00 0.00 0.00 40 1021.5
20260503150518 59 213 1.0 4.0 0.00 0.00 0.00 44 1021.6
20260503140311 56 247 2.0 4.0 0.00 0.00 0.00 46 1021.7
20260503131020 52 263 2.0 4.0 0.00 0.00 0.00 50 1021.4
20260503130518 53 249 2.0 3.0 0.00 0.00 0.00 49 1021.4
20260503120106 54 277 1.0 3.0 0.00 0.00 0.00 47 1021.6
20260503110526 54 263 1.0 3.0 0.00 0.00 0.00 48 1021.9
20260503110106 54 263 1.0 3.0 0.00 0.00 0.00 48 1021.9
20260503081550 56 248 2.0 4.0 0.00 0.00 0.00 45 1021.7
20260503081017 56 249 2.0 4.0 0.00 0.00 0.00 45 1021.8
20260503080516 56 248 2.0 4.0 0.00 0.00 0.00 45 1021.8
20260503072516 56 242 3.0 5.0 0.00 0.00 0.00 46 1021.9
20260503072015 55 250 2.0 4.0 0.00 0.00 0.00 46 1021.9
20260503071610 55 250 2.0 4.0 0.00 0.00 0.00 46 1021.9
20260503071016 55 248 3.0 5.0 0.00 0.00 0.00 46 1021.9
20260503070516 55 250 3.0 5.0 0.00 0.00 0.00 47 1021.9
20260503060108 56 267 2.0 3.0 0.00 0.00 0.00 46 1022.0
20260503055019 56 269 2.0 3.0 0.00 0.00 0.00 46 1022.1
20260503054601 56 274 1.0 3.0 0.00 0.00 0.00 47 1022.0
20260503054019 56 274 2.0 3.0 0.00 0.00 0.00 47 1022.1
20260503053518 55 279 2.0 3.0 0.00 0.00 0.00 48 1022.1
20260503053100 55 263 2.0 3.0 0.00 0.00 0.00 48 1022.1
20260503052520 56 263 1.0 3.0 0.00 0.00 0.00 47 1022.1
20260503052024 56 261 1.0 3.0 0.00 0.00 0.00 47 1022.1
20260503051601 56 270 1.0 3.0 0.00 0.00 0.00 46 1021.9
20260503051019 56 270 2.0 3.0 0.00 0.00 0.00 46 1022.0
20260503050515 56 267 2.0 3.0 0.00 0.00 0.00 46 1021.9
20260503050111 57 277 2.0 3.0 0.00 0.00 0.00 46 1021.9
20260503045524 57 270 1.0 3.0 0.00 0.00 0.00 45 1021.9
20260503045025 58 264 1.0 2.0 0.00 0.00 0.00 43 1021.8
20260503044601 58 264 1.0 2.0 0.00 0.00 0.00 44 1021.9
20260503044021 58 264 1.0 2.0 0.00 0.00 0.00 44 1021.9
20260503043522 58 264 0.0 2.0 0.00 0.00 0.00 43 1021.9
20260503043111 58 264 1.0 2.0 0.00 0.00 0.00 44 1021.9
20260503042528 58 264 1.0 2.0 0.00 0.00 0.00 44 1021.8
20260503042017 58 264 1.0 2.0 0.00 0.00 0.00 44 1021.8
20260503041815 58 264 1.0 2.0 0.00 0.00 0.00 44 1021.9
20260503041014 58 259 1.0 2.0 0.00 0.00 0.00 44 1021.9
20260503040517 58 244 1.0 2.0 0.00 0.00 0.00 44 1021.8
20260503040312 58 244 1.0 2.0 0.00 0.00 0.00 44 1021.7
20260503035521 58 244 1.0 2.0 0.00 0.00 0.00 44 1021.7
20260503035017 58 244 1.0 2.0 0.00 0.00 0.00 44 1021.5
20260503034553 58 244 1.0 2.0 0.00 0.00 0.00 43 1021.4
20260503034016 58 244 1.0 2.0 0.00 0.00 0.00 43 1021.4
20260503033519 58 244 1.0 2.0 0.00 0.00 0.00 44 1021.3
20260503033053 58 244 0.0 2.0 0.00 0.00 0.00 44 1021.1
20260503032518 58 244 1.0 2.0 0.00 0.00 0.00 44 1021.1
20260503032017 58 244 0.0 2.0 0.00 0.00 0.00 44 1021.1
20260503031607 58 244 0.0 2.0 0.00 0.00 0.00 44 1021.1
20260503031014 58 244 0.0 1.0 0.00 0.00 0.00 44 1021.0
20260503030515 58 244 0.0 1.0 0.00 0.00 0.00 44 1021.1
20260503030052 58 244 0.0 2.0 0.00 0.00 0.00 44 1021.1
20260503025518 58 244 1.0 2.0 0.00 0.00 0.00 43 1021.1
20260503025016 59 244 0.0 1.0 0.00 0.00 0.00 44 1021.2
20260503024550 59 244 0.0 1.0 0.00 0.00 0.00 43 1021.1
20260503024019 59 244 0.0 1.0 0.00 0.00 0.00 43 1021.0
20260503023517 59 244 0.0 2.0 0.00 0.00 0.00 43 1020.9
20260503023057 60 244 0.0 2.0 0.00 0.00 0.00 43 1021.0
20260503022519 60 244 0.0 2.0 0.00 0.00 0.00 41 1020.9
20260503022025 61 244 0.0 2.0 0.00 0.00 0.00 41 1020.9
20260503021548 61 220 0.0 1.0 0.00 0.00 0.00 40 1021.0
20260503021017 62 220 0.0 0.0 0.00 0.00 0.00 38 1021.1
20260503020522 62 220 0.0 0.0 0.00 0.00 0.00 39 1021.1
20260503020051 62 220 0.0 1.0 0.00 0.00 0.00 40 1021.1
20260503015522 63 220 0.0 2.0 0.00 0.00 0.00 39 1021.1
20260503015017 63 226 0.0 3.0 0.00 0.00 0.00 39 1021.0
20260503014607 63 209 1.0 5.0 0.00 0.00 0.00 39 1021.1
20260503014028 63 219 3.0 5.0 0.00 0.00 0.00 40 1021.0
20260503013516 63 245 2.0 5.0 0.00 0.00 0.00 40 1021.1
20260503013058 63 248 2.0 7.0 0.00 0.00 0.00 39 1021.1
20260503012517 63 215 3.0 7.0 0.00 0.00 0.00 38 1021.3
20260503012015 63 214 4.0 7.0 0.00 0.00 0.00 40 1021.3
20260503011600 62 230 3.0 6.0 0.00 0.00 0.00 40 1021.4
20260503011016 62 219 3.0 6.0 0.00 0.00 0.00 41 1021.4
20260503010515 61 254 2.0 5.0 0.00 0.00 0.00 41 1021.3
20260503010048 62 198 2.0 4.0 0.00 0.00 0.00 40 1021.4
20260503005524 62 207 2.0 3.0 0.00 0.00 0.00 39 1021.4
20260503005015 62 194 1.0 3.0 0.00 0.00 0.00 40 1021.4
20260503004548 62 194 0.0 2.0 0.00 0.00 0.00 40 1021.3
20260503004017 62 194 0.0 2.0 0.00 0.00 0.00 40 1021.3
20260503003527 62 190 0.0 1.0 0.00 0.00 0.00 40 1021.4
20260503003039 62 190 0.0 2.0 0.00 0.00 0.00 40 1021.4
20260503002515 62 190 1.0 2.0 0.00 0.00 0.00 41 1021.4
20260503002014 62 44 0.0 1.0 0.00 0.00 0.00 40 1021.6
20260503001555 62 44 0.0 2.0 0.00 0.00 0.00 40 1021.6
20260503001013 62 44 0.0 2.0 0.00 0.00 0.00 40 1021.4
20260503000516 63 48 0.0 2.0 0.00 0.00 0.00 40 1021.6
20260503000035 63 76 0.0 3.0 0.00 0.00 0.00 40 1021.4
20260502235513 64 63 1.0 3.0 0.00 0.00 0.00 38 1021.6
20260502235018 64 84 1.0 4.0 0.00 0.00 0.00 37 1021.7
20260502234558 64 71 1.0 4.0 0.00 0.00 0.00 37 1021.7
20260502234019 64 83 0.0 3.0 0.00 0.00 0.00 38 1021.7
20260502233518 63 148 1.0 3.0 0.00 0.00 0.00 38 1021.8
20260502233100 63 106 0.0 3.0 0.00 0.00 0.00 39 1021.8
20260502232517 62 151 1.0 3.0 0.00 0.00 0.00 38 1021.8
20260502232013 62 93 1.0 3.0 0.00 0.00 0.00 41 1021.9
20260502231551 62 90 1.0 3.0 0.00 0.00 0.00 40 1022.0